Location: Ertinghausen
(51.6624°N, 9.7874°E)
Time: 10:02:04
(UTC+00:00)

NOSS 3-4 (C) - Pass Details

Date: 23 May 2024
Orbit: 814 x 1397 km, 63.4° (Epoch: 04 June)

Event Time Altitude Azimuth Distance (km) Brightness Sun altitude
Rises 00:33:32 0° 313° (NW) 3,778 6.9 -15.8°
Reaches altitude 10° 00:36:12 10° 305° (NW) 2,906 6.2 -15.7°
Maximum altitude 00:42:28 38° 241° (WSW) 1,727 4.4 -15.3°
Enters shadow 00:47:18 19° 186° (S) 2,596 5.1 -15.1°
